| time (UTC) | temp F | wind direction | speed MPH | gust MPH | rain 1hr in | rain 24hr in | rain mn in | humidity % | barometer mb |
| 20260904154504 | 60 | 267 | 12.0 | 32.0 | 0.00 | 0.05 | 0.05 | 72 | 998.0 |
| 20260904153003 | 60 | 270 | 10.0 | 24.0 | 0.00 | 0.05 | 0.05 | 72 | 997.9 |
| 20260904151503 | 60 | 268 | 13.0 | 35.0 | 0.00 | 0.05 | 0.05 | 73 | 997.6 |
| 20260904150025 | 60 | 263 | 14.0 | 38.0 | 0.00 | 0.05 | 0.05 | 72 | 997.5 |
| 20260904144503 | 62 | 266 | 11.0 | 33.0 | 0.00 | 0.05 | 0.05 | 68 | 997.3 |
| 20260904143003 | 61 | 266 | 11.0 | 32.0 | 0.00 | 0.05 | 0.05 | 68 | 997.1 |
| 20260904141503 | 62 | 265 | 10.0 | 33.0 | 0.00 | 0.05 | 0.05 | 70 | 996.9 |
| 20260904140004 | 62 | 265 | 11.0 | 29.0 | 0.00 | 0.05 | 0.05 | 70 | 996.6 |
| 20260904134503 | 62 | 266 | 12.0 | 29.0 | 0.00 | 0.05 | 0.05 | 70 | 996.4 |
| 20260904133003 | 62 | 266 | 13.0 | 32.0 | 0.00 | 0.05 | 0.05 | 72 | 996.5 |
| 20260904131503 | 62 | 263 | 14.0 | 37.0 | 0.00 | 0.05 | 0.05 | 69 | 996.4 |
| 20260904130003 | 61 | 263 | 9.0 | 23.0 | 0.00 | 0.05 | 0.05 | 73 | 996.3 |
| 20260904124503 | 61 | 261 | 10.0 | 27.0 | 0.00 | 0.05 | 0.05 | 73 | 996.1 |
| 20260904123003 | 60 | 264 | 11.0 | 32.0 | 0.01 | 0.05 | 0.05 | 73 | 995.9 |
| 20260904121503 | 61 | 267 | 8.0 | 22.0 | 0.01 | 0.05 | 0.05 | 74 | 996.0 |
| 20260904120024 | 60 | 269 | 9.0 | 22.0 | 0.01 | 0.05 | 0.05 | 75 | 995.9 |
| 20260904114524 | 59 | 267 | 9.0 | 29.0 | 0.01 | 0.05 | 0.05 | 78 | 995.9 |
| 20260904113003 | 59 | 265 | 8.0 | 29.0 | 0.04 | 0.04 | 0.04 | 82 | 995.5 |
| 20260904111524 | 58 | 260 | 13.0 | 29.0 | 0.04 | 0.04 | 0.04 | 87 | 995.4 |
| 20260904110003 | 56 | 247 | 12.0 | 29.0 | 0.04 | 0.04 | 0.04 | 91 | 995.4 |
| 20260904104503 | 57 | 236 | 17.0 | 30.0 | 0.04 | 0.04 | 0.04 | 90 | 995.2 |
| 20260904103003 | 60 | 237 | 18.0 | 27.0 | 0.00 | 0.00 | 0.00 | 82 | 994.9 |
| 20260904101503 | 61 | 227 | 16.0 | 29.0 | 0.00 | 0.00 | 0.00 | 77 | 994.9 |
| 20260904100003 | 61 | 227 | 17.0 | 30.0 | 0.00 | 0.00 | 0.00 | 79 | 994.7 |
| 20260904094503 | 61 | 232 | 15.0 | 30.0 | 0.00 | 0.00 | 0.00 | 81 | 994.8 |
| 20260904093003 | 59 | 227 | 14.0 | 27.0 | 0.00 | 0.00 | 0.00 | 81 | 994.8 |
| 20260904091503 | 60 | 222 | 13.0 | 30.0 | 0.00 | 0.00 | 0.00 | 80 | 994.8 |
| 20260904090003 | 60 | 215 | 14.0 | 30.0 | 0.00 | 0.00 | 0.00 | 80 | 994.9 |
| 20260904084524 | 59 | 209 | 13.0 | 25.0 | 0.00 | 0.00 | 0.00 | 84 | 995.0 |
| 20260904083003 | 58 | 203 | 14.0 | 25.0 | 0.00 | 0.00 | 0.00 | 85 | 995.0 |
| 20260904081503 | 56 | 190 | 12.0 | 19.0 | 0.00 | 0.00 | 0.00 | 85 | 995.1 |
| 20260904080003 | 56 | 182 | 13.0 | 18.0 | 0.00 | 0.00 | 0.00 | 86 | 995.2 |
| 20260904074524 | 56 | 180 | 15.0 | 22.0 | 0.00 | 0.00 | 0.00 | 87 | 995.2 |
| 20260904073003 | 53 | 181 | 14.0 | 22.0 | 0.00 | 0.00 | 0.00 | 88 | 995.5 |
| 20260904071503 | 52 | 181 | 14.0 | 20.0 | 0.00 | 0.00 | 0.00 | 88 | 995.5 |
| 20260904070003 | 52 | 179 | 14.0 | 19.0 | 0.00 | 0.00 | 0.00 | 88 | 995.8 |
| 20260904064503 | 52 | 178 | 12.0 | 15.0 | 0.00 | 0.00 | 0.00 | 89 | 995.8 |
| 20260904063024 | 52 | 186 | 13.0 | 18.0 | 0.00 | 0.00 | 0.00 | 88 | 996.0 |
| 20260904061503 | 52 | 188 | 14.0 | 23.0 | 0.00 | 0.00 | 0.00 | 89 | 996.0 |
| 20260904060003 | 51 | 183 | 14.0 | 21.0 | 0.00 | 0.00 | 0.00 | 90 | 996.2 |
| 20260904054503 | 51 | 181 | 13.0 | 20.0 | 0.00 | 0.00 | 0.00 | 90 | 996.5 |
| 20260904053003 | 51 | 182 | 12.0 | 16.0 | 0.00 | 0.00 | 0.00 | 89 | 996.6 |
| 20260904051524 | 50 | 181 | 9.0 | 15.0 | 0.00 | 0.00 | 0.00 | 91 | 996.6 |
| 20260904050024 | 50 | 180 | 9.0 | 13.0 | 0.00 | 0.00 | 0.00 | 92 | 996.7 |
| 20260904044503 | 50 | 174 | 11.0 | 14.0 | 0.00 | 0.00 | 0.00 | 94 | 996.9 |
| 20260904043024 | 49 | 166 | 10.0 | 14.0 | 0.00 | 0.00 | 0.00 | 94 | 997.2 |
| 20260904041503 | 50 | 169 | 9.0 | 14.0 | 0.00 | 0.00 | 0.00 | 92 | 997.4 |
| 20260904040003 | 50 | 175 | 11.0 | 14.0 | 0.00 | 0.00 | 0.00 | 92 | 997.5 |
| 20260904034503 | 51 | 193 | 10.0 | 18.0 | 0.00 | 0.00 | 0.00 | 92 | 997.8 |
| 20260904033003 | 51 | 186 | 11.0 | 22.0 | 0.00 | 0.00 | 0.00 | 93 | 997.7 |
| 20260904031503 | 50 | 168 | 12.0 | 16.0 | 0.00 | 0.00 | 0.00 | 94 | 998.0 |
| 20260904030003 | 51 | 167 | 11.0 | 13.0 | 0.00 | 0.00 | 0.00 | 93 | 998.0 |
| 20260904024503 | 52 | 176 | 12.0 | 20.0 | 0.00 | 0.00 | 0.00 | 92 | 998.3 |
| 20260904023003 | 52 | 185 | 14.0 | 20.0 | 0.00 | 0.00 | 0.00 | 92 | 998.3 |
| 20260904021503 | 52 | 182 | 14.0 | 26.0 | 0.00 | 0.00 | 0.00 | 92 | 998.5 |
| 20260904020003 | 51 | 172 | 11.0 | 14.0 | 0.00 | 0.00 | 0.00 | 92 | 998.5 |
| 20260904014526 | 52 | 181 | 12.0 | 15.0 | 0.00 | 0.00 | 0.00 | 92 | 998.6 |
| 20260904013005 | 52 | 194 | 9.0 | 13.0 | 0.00 | 0.00 | 0.00 | 90 | 998.8 |
| 20260904011505 | 53 | 187 | 10.0 | 15.0 | 0.00 | 0.00 | 0.00 | 91 | 999.0 |
| 20260904010005 | 52 | 185 | 11.0 | 16.0 | 0.00 | 0.01 | 0.00 | 90 | 999.3 |
| 20260904004505 | 54 | 189 | 12.0 | 19.0 | 0.00 | 0.01 | 0.00 | 90 | 999.5 |
| 20260904003005 | 53 | 183 | 11.0 | 15.0 | 0.00 | 0.01 | 0.00 | 89 | 999.6 |
| 20260904001505 | 54 | 181 | 10.0 | 15.0 | 0.00 | 0.01 | 0.00 | 89 | 999.7 |
| 20260904000005 | 54 | 180 | 12.0 | 15.0 | 0.00 | 0.01 | 0.00 | 89 | 999.8 |
| 20260903234505 | 54 | 178 | 11.0 | 15.0 | 0.00 | 0.02 | 0.00 | 89 | 999.9 |
| 20260903233005 | 54 | 172 | 11.0 | 14.0 | 0.00 | 0.02 | 0.00 | 89 | 1000.1 |
| 20260903231526 | 54 | 183 | 10.0 | 12.0 | 0.00 | 0.02 | 0.00 | 88 | 1000.3 |
| 20260903230006 | 54 | 192 | 10.0 | 13.0 | 0.00 | 0.02 | 0.00 | 87 | 1000.5 |
| 20260903224505 | 54 | 192 | 9.0 | 15.0 | 0.00 | 0.04 | 0.02 | 87 | 1000.8 |
| 20260903223005 | 55 | 200 | 12.0 | 19.0 | 0.00 | 0.05 | 0.02 | 87 | 1001.0 |
| 20260903221505 | 55 | 204 | 11.0 | 14.0 | 0.00 | 0.07 | 0.02 | 88 | 1001.0 |
| 20260903220005 | 55 | 201 | 11.0 | 16.0 | 0.00 | 0.10 | 0.02 | 89 | 1001.4 |
| 20260903214505 | 55 | 198 | 13.0 | 19.0 | 0.00 | 0.11 | 0.02 | 90 | 1001.5 |
| 20260903213005 | 55 | 203 | 11.0 | 18.0 | 0.00 | 0.12 | 0.02 | 90 | 1001.6 |
| 20260903211505 | 55 | 209 | 11.0 | 20.0 | 0.00 | 0.12 | 0.02 | 90 | 1001.6 |
| 20260903210005 | 55 | 227 | 5.0 | 14.0 | 0.00 | 0.12 | 0.02 | 90 | 1001.8 |
| 20260903204505 | 56 | 222 | 7.0 | 18.0 | 0.00 | 0.12 | 0.02 | 89 | 1001.9 |
| 20260903203005 | 56 | 207 | 12.0 | 22.0 | 0.00 | 0.12 | 0.02 | 89 | 1002.1 |
| 20260903201505 | 56 | 187 | 12.0 | 20.0 | 0.00 | 0.12 | 0.02 | 89 | 1002.1 |
| 20260903200026 | 56 | 178 | 12.0 | 16.0 | 0.00 | 0.12 | 0.02 | 90 | 1002.1 |
| 20260903194505 | 56 | 180 | 12.0 | 16.0 | 0.00 | 0.12 | 0.02 | 90 | 1002.2 |
| 20260903193005 | 56 | 180 | 10.0 | 14.0 | 0.00 | 0.12 | 0.02 | 89 | 1002.3 |
| 20260903191505 | 56 | 176 | 9.0 | 13.0 | 0.00 | 0.12 | 0.02 | 89 | 1002.2 |
| 20260903190004 | 56 | 172 | 10.0 | 13.0 | 0.00 | 0.12 | 0.02 | 87 | 1002.4 |
| 20260903184504 | 57 | 191 | 8.0 | 12.0 | 0.00 | 0.12 | 0.02 | 85 | 1002.4 |
| 20260903183004 | 58 | 194 | 10.0 | 19.0 | 0.00 | 0.12 | 0.02 | 85 | 1002.7 |
| 20260903181526 | 58 | 191 | 7.0 | 15.0 | 0.00 | 0.12 | 0.02 | 86 | 1003.0 |
| 20260903180005 | 58 | 189 | 5.0 | 8.0 | 0.00 | 0.12 | 0.02 | 85 | 1003.3 |
| 20260903174504 | 58 | 190 | 8.0 | 15.0 | 0.00 | 0.12 | 0.02 | 83 | 1003.4 |
| 20260903173004 | 59 | 209 | 8.0 | 14.0 | 0.00 | 0.12 | 0.02 | 82 | 1003.2 |
| 20260903171504 | 59 | 228 | 6.0 | 15.0 | 0.00 | 0.12 | 0.02 | 82 | 1003.5 |
| 20260903170004 | 60 | 225 | 11.0 | 23.0 | 0.00 | 0.12 | 0.02 | 80 | 1003.7 |
| 20260903164504 | 60 | 218 | 10.0 | 21.0 | 0.00 | 0.12 | 0.02 | 79 | 1003.9 |
| 20260903163005 | 60 | 213 | 10.0 | 18.0 | 0.00 | 0.12 | 0.02 | 81 | 1003.8 |
| 20260903161504 | 60 | 208 | 8.0 | 14.0 | 0.00 | 0.12 | 0.02 | 82 | 1004.1 |
| 20260903160004 | 60 | 209 | 6.0 | 10.0 | 0.00 | 0.12 | 0.02 | 81 | 1004.2 |